User: anonymous   Login
Location: Unspecified
(0.0000°N, 0.0000°E)
Time: 19:48:58
(UTC+00:00)
Language:

DNEPR OBJECT U - Orbit

View from above orbital plane
View from above orbital plane
View from above satellite
View from above satellite

Ground track
Ground track

The orbit data is extracted from the following two-line orbital elements,

1 39434U 13066U   17269.45171842  .00001643  00000-0  12625-3 0  9999
2 39434  97.6432 343.9718 0033564 174.8842 185.2734 15.02694661210032
Epoch (UTC): 26 September 2017 10:50:28
Eccentricity: 0.0033564
inclination: 97.6432°
perigee height: 535 km
apogee height: 582 km
right ascension of ascending node: 343.9718°
argument of perigee: 174.8842°
revolutions per day: 15.02694661
mean anomaly at epoch: 185.2734°
orbit number at epoch: 21003

The dashed part of the orbit path shows where the satellite is in the earth's shadow,  

DLR